Home > Weather > Montpelier > Past weeks

Flag for U.S.A. Weather for the Past 2 Weeks in Montpelier, Vermont, U.S.A.

Now
17 °F

Light snow. Ice fog.


Feels Like: 12 °F
Forecast: 20 / 29 °F
Wind: 3 mph from Northwest

Location: Knapp State Airport

Current Time: Feb 9, 2016 at 2:06:22 AM

Latest Report: Feb 9, 2016 at 1:02 AM


Visibility: 2 mi

Pressure: 29.75 "Hg

Humidity: 88%

Dew point: 14 °F

Location of MontpelierLocation

Historic Weather in Montpelier — Graph

°F

Montpelier Temperature Yesterday

Maximum temperature yesterday: 26 °F (at 1:51 PM)
Minimum temperature yesterday: 17 °F (at 11:51 PM)
Average temperature yesterday: 21 °F

High & Low Weather Summary for the Past Weeks

 TemperatureHumidityPressure
High54 °F (Feb 1, 6:51 AM)100% (Feb 3, 10:58 PM)30.45 "Hg (Feb 3, 10:58 PM)
Low8 °F (Jan 28, 6:51 AM)26% (Feb 8, 2:51 PM)29.42 "Hg (Jan 29, 2:01 PM)
Average30 °F70%29.99 "Hg
* Reported Jan 24 11:51 PM — Feb 8 11:51 PM, Montpelier, Weather by CustomWeather, © 2016

Note: Actual official high and low records may vary slightly from our data, if they occured in-between our weather recording intervals... More about our weather records

Advertising

Montpelier Weather History for the Previous 24 Hours

 ConditionsComfort  
Time TempWeatherWind HumidityBarometerVisibility
11:51 PM
Mon, Feb 8
17 °FLight snow. Ice fog.5 mph92%29.83 "Hg2 mi
10:51 PM18 °FLight snow. Ice fog.6 mph84%29.85 "Hg2 mi
9:51 PM18 °FLight snow. Ice fog.5 mph88%29.86 "Hg2 mi
8:51 PM19 °FLight snow. Ice fog.5 mph88%29.87 "Hg1 mi
7:51 PM20 °FLight snow. Ice fog.6 mph85%29.87 "Hg1 mi
6:51 PM21 °FLight snow. Overcast.7 mph68%29.88 "Hg3 mi
5:51 PM25 °FOvercast.3 mph33%29.87 "Hg10 mi
4:51 PM25 °FOvercast.3 mph26%29.86 "Hg10 mi
3:51 PM26 °FMostly cloudy.7 mph26%29.85 "Hg10 mi
2:51 PM26 °FOvercast.6 mph26%29.87 "Hg10 mi
1:51 PM26 °FOvercast.7 mph31%29.87 "Hg10 mi
12:51 PM25 °FSunny.5 mph37%29.91 "Hg10 mi
11:51 AM24 °FSunny.6 mph44%29.93 "Hg10 mi
10:51 AM23 °FSunny.6 mph48%29.96 "Hg10 mi
9:51 AM22 °FSunny.7 mph55%29.98 "Hg10 mi
8:51 AM22 °FSunny.6 mph68%29.99 "Hg10 mi
7:51 AM21 °FSunny.8 mph74%29.98 "Hg10 mi
6:51 AM20 °FClear.No wind85%29.97 "Hg10 mi
5:51 AM19 °FClear.No wind92%29.99 "Hg10 mi
4:51 AM18 °FClear.No wind92%30.00 "Hg10 mi
3:51 AM19 °FClear.No wind88%30.03 "Hg10 mi
2:51 AM18 °FClear.No wind92%30.06 "Hg10 mi
Weather by CustomWeather, © 2016

See weather overviewHow to use our weather pages